When you browse on this site, cookies collect data to enhance your experience and personalize the content and advertising you see.
Visit our Privacy Policy to learn more. By continuing to use the site, you agree to this use of cookies and data.
  • In Czech Republic
  • List of Countries
  • For 7 days
  • Water Temperature
  • Weather Map
  • Weather Widgets
  • user-avatar
    Login

    Hourly Weather Wadzhir

    Today, 26 August, Monday

    Time Temperature Precipitation Wind Pressure Humidity
    00:00 +27°C° 0 mm 7 mps 739 mmHg 60%
    01:00 +27°C° 0 mm 7 mps 739 mmHg 66%
    02:00 +26°C° 0 mm 6 mps 739 mmHg 72%
    03:00 +24°C° 0 mm 6 mps 738 mmHg 78%
    04:00 +25°C° 0 mm 5 mps 739 mmHg 81%
    05:00 +23°C° 0 mm 4 mps 739 mmHg 83%
    06:00 +24°C° 0 mm 3 mps 740 mmHg 86%
    07:00 +25°C° 0.1 mm 5 mps 740 mmHg 78%
    08:00 +26°C° 0.1 mm 6 mps 741 mmHg 71%
    09:00 +28°C° 0.1 mm 7 mps 741 mmHg 63%
    10:00 +31°C° 0 mm 8 mps 741 mmHg 51%
    11:00 +33°C° 0 mm 8 mps 740 mmHg 40%
    12:00 +37°C° 0 mm 8 mps 740 mmHg 28%
    13:00 +37°C° 0 mm 8 mps 738 mmHg 26%
    14:00 +38°C° 0 mm 8 mps 737 mmHg 25%
    15:00 +39°C° 0 mm 8 mps 736 mmHg 23%
    16:00 +38°C° 0 mm 8 mps 736 mmHg 25%
    17:00 +37°C° 0 mm 8 mps 736 mmHg 26%
    18:00 +37°C° 0 mm 8 mps 736 mmHg 27%
    19:00 +34°C° 0 mm 8 mps 736 mmHg 32%
    20:00 +33°C° 0 mm 8 mps 737 mmHg 36%
    21:00 +32°C° 0 mm 8 mps 737 mmHg 40%
    22:00 +31°C° 0 mm 8 mps 738 mmHg 45%
    23:00 +28°C° 0 mm 8 mps 738 mmHg 50%

    Tomorrow, 27 August, Tuesday

    Time Temperature Precipitation Wind Pressure Humidity
    00:00 +27°C° 0 mm 8 mps 738 mmHg 55%
    01:00 +26°C° 0 mm 7 mps 738 mmHg 61%
    02:00 +24°C° 0 mm 6 mps 738 mmHg 67%
    03:00 +25°C° 0 mm 5 mps 738 mmHg 74%
    04:00 +23°C° 0 mm 5 mps 738 mmHg 77%
    05:00 +23°C° 0 mm 4 mps 739 mmHg 80%
    06:00 +22°C° 0 mm 3 mps 739 mmHg 83%
    07:00 +25°C° 0 mm 4 mps 739 mmHg 73%
    08:00 +27°C° 0 mm 5 mps 740 mmHg 63%
    09:00 +29°C° 0 mm 7 mps 741 mmHg 53%
    10:00 +32°C° 0 mm 7 mps 740 mmHg 45%
    11:00 +33°C° 0 mm 7 mps 739 mmHg 38%
    12:00 +35°C° 0 mm 7 mps 739 mmHg 31%
    13:00 +37°C° 0 mm 8 mps 738 mmHg 28%
    14:00 +38°C° 0 mm 8 mps 737 mmHg 26%
    15:00 +39°C° 0 mm 8 mps 736 mmHg 24%
    16:00 +38°C° 0 mm 8 mps 736 mmHg 25%
    17:00 +38°C° 0 mm 7 mps 735 mmHg 26%
    18:00 +36°C° 0 mm 7 mps 735 mmHg 27%
    19:00 +35°C° 0 mm 7 mps 735 mmHg 32%
    20:00 +33°C° 0 mm 8 mps 736 mmHg 36%
    21:00 +32°C° 0 mm 8 mps 737 mmHg 41%
    22:00 +31°C° 0 mm 8 mps 737 mmHg 47%
    23:00 +29°C° 0 mm 8 mps 737 mmHg 54%

    Day after tomorrow, 28 August, Wednesday

    Time Temperature Precipitation Wind Pressure Humidity
    00:00 +27°C° 0 mm 9 mps 738 mmHg 60%
    01:00 +27°C° 0 mm 8 mps 738 mmHg 66%
    02:00 +26°C° 0 mm 7 mps 737 mmHg 71%
    03:00 +24°C° 0 mm 6 mps 737 mmHg 76%
    04:00 +23°C° 0 mm 5 mps 738 mmHg 78%
    05:00 +23°C° 0 mm 5 mps 738 mmHg 80%
    06:00 +23°C° 0 mm 4 mps 738 mmHg 82%
    07:00 +25°C° 0 mm 5 mps 739 mmHg 73%
    08:00 +26°C° 0 mm 6 mps 739 mmHg 65%
    09:00 +28°C° 0 mm 7 mps 740 mmHg 56%
    10:00 +30°C° 0 mm 7 mps 740 mmHg 48%
    11:00 +33°C° 0 mm 8 mps 739 mmHg 41%
    12:00 +35°C° 0 mm 8 mps 738 mmHg 33%
    13:00 +37°C° 0 mm 8 mps 737 mmHg 31%
    14:00 +38°C° 0 mm 8 mps 736 mmHg 30%
    15:00 +39°C° 0 mm 8 mps 735 mmHg 28%
    16:00 +38°C° 0 mm 8 mps 735 mmHg 29%
    17:00 +37°C° 0 mm 8 mps 734 mmHg 30%
    18:00 +35°C° 0 mm 8 mps 734 mmHg 32%
    19:00 +34°C° 0 mm 8 mps 735 mmHg 34%
    20:00 +33°C° 0 mm 7 mps 736 mmHg 37%
    21:00 +32°C° 0 mm 7 mps 736 mmHg 39%
    22:00 +30°C° 0 mm 7 mps 737 mmHg 44%
    23:00 +28°C° 0 mm 8 mps 737 mmHg 49%

    29 August, Thursday

    Time Temperature Precipitation Wind Pressure Humidity
    00:00 +27°C° 0 mm 8 mps 737 mmHg 53%
    01:00 +26°C° 0 mm 8 mps 737 mmHg 59%
    02:00 +24°C° 0 mm 7 mps 737 mmHg 64%
    03:00 +24°C° 0 mm 6 mps 737 mmHg 69%
    04:00 +23°C° 0 mm 5 mps 737 mmHg 73%
    05:00 +23°C° 0 mm 5 mps 738 mmHg 77%
    06:00 +22°C° 0 mm 4 mps 738 mmHg 81%
    07:00 +25°C° 0 mm 5 mps 739 mmHg 73%
    08:00 +26°C° 0 mm 6 mps 739 mmHg 66%
    09:00 +28°C° 0 mm 7 mps 740 mmHg 59%
    10:00 +30°C° 0 mm 7 mps 739 mmHg 51%
    11:00 +33°C° 0 mm 7 mps 739 mmHg 43%
    12:00 +35°C° 0 mm 7 mps 738 mmHg 35%
    13:00 +35°C° 0 mm 7 mps 737 mmHg 34%
    14:00 +36°C° 0 mm 7 mps 736 mmHg 33%
    15:00 +36°C° 0 mm 7 mps 735 mmHg 32%
    16:00 +36°C° 0 mm 7 mps 735 mmHg 33%
    17:00 +35°C° 0 mm 7 mps 734 mmHg 35%
    18:00 +35°C° 0 mm 8 mps 734 mmHg 36%
    19:00 +34°C° 0 mm 7 mps 735 mmHg 41%
    20:00 +32°C° 0 mm 7 mps 735 mmHg 46%
    21:00 +30°C° 0 mm 6 mps 736 mmHg 52%
    22:00 +29°C° 0 mm 7 mps 736 mmHg 56%
    23:00 +28°C° 0 mm 8 mps 736 mmHg 61%

    30 August, Friday

    Time Temperature Precipitation Wind Pressure Humidity
    00:00 +27°C° 0 mm 8 mps 737 mmHg 66%
    01:00 +26°C° 0 mm 7 mps 737 mmHg 69%
    02:00 +26°C° 0 mm 6 mps 736 mmHg 71%
    03:00 +24°C° 0 mm 6 mps 736 mmHg 74%
    04:00 +25°C° 0 mm 5 mps 737 mmHg 77%
    05:00 +23°C° 0 mm 5 mps 737 mmHg 81%
    06:00 +23°C° 0 mm 4 mps 737 mmHg 84%
    07:00 +25°C° 0 mm 5 mps 738 mmHg 76%
    08:00 +27°C° 0 mm 6 mps 738 mmHg 68%
    09:00 +28°C° 0 mm 7 mps 739 mmHg 61%
    10:00 +30°C° 0 mm 7 mps 738 mmHg 55%
    11:00 +32°C° 0 mm 6 mps 738 mmHg 50%
    12:00 +33°C° 0 mm 6 mps 737 mmHg 45%
    13:00 +34°C° 0 mm 7 mps 736 mmHg 42%
    14:00 +35°C° 0 mm 7 mps 735 mmHg 39%
    15:00 +36°C° 0 mm 7 mps 734 mmHg 36%
    16:00 +35°C° 0 mm 7 mps 734 mmHg 38%
    17:00 +35°C° 0 mm 7 mps 734 mmHg 39%
    18:00 +34°C° 0 mm 7 mps 734 mmHg 41%
    19:00 +33°C° 0 mm 7 mps 734 mmHg 44%
    20:00 +32°C° 0 mm 6 mps 735 mmHg 48%
    21:00 +30°C° 0 mm 6 mps 735 mmHg 51%
    22:00 +30°C° 0 mm 6 mps 736 mmHg 55%
    23:00 +29°C° 0 mm 7 mps 736 mmHg 59%

    31 August, Saturday

    Time Temperature Precipitation Wind Pressure Humidity
    00:00 +28°C° 0 mm 7 mps 736 mmHg 63%
    01:00 +27°C° 0 mm 6 mps 736 mmHg 67%
    02:00 +26°C° 0 mm 5 mps 735 mmHg 72%
    03:00 +25°C° 0 mm 4 mps 735 mmHg 77%
    04:00 +25°C° 0 mm 4 mps 736 mmHg 80%
    05:00 +23°C° 0 mm 4 mps 736 mmHg 83%
    06:00 +24°C° 0 mm 3 mps 736 mmHg 86%
    07:00 +25°C° 0 mm 4 mps 737 mmHg 78%
    08:00 +27°C° 0 mm 5 mps 737 mmHg 70%
    09:00 +28°C° 0 mm 6 mps 738 mmHg 62%
    10:00 +29°C° 0 mm 6 mps 737 mmHg 58%
    11:00 +30°C° 0 mm 6 mps 737 mmHg 54%
    12:00 +33°C° 0 mm 6 mps 736 mmHg 49%
    13:00 +34°C° 0 mm 6 mps 735 mmHg 45%
    14:00 +35°C° 0 mm 6 mps 734 mmHg 41%
    15:00 +36°C° 0 mm 6 mps 733 mmHg 37%
    16:00 +36°C° 0 mm 7 mps 733 mmHg 37%
    17:00 +35°C° 0 mm 7 mps 733 mmHg 38%
    18:00 +35°C° 0 mm 7 mps 733 mmHg 39%
    19:00 +34°C° 0 mm 7 mps 733 mmHg 42%
    20:00 +33°C° 0 mm 7 mps 734 mmHg 46%
    21:00 +32°C° 0 mm 7 mps 734 mmHg 49%
    22:00 +30°C° 0 mm 7 mps 735 mmHg 54%
    23:00 +29°C° 0 mm 8 mps 735 mmHg 59%
    Show more